| time (UTC) | temp F | wind direction | speed knots | gust knots | rain 1hr in | rain 24hr in | rain mn in | humidity % | barometer mb |
| 20260508094555 | 43 | 138 | 0.9 | 2.6 | 0.00 | 0.00 | 0.00 | 93 | 1013.9 |
| 20260508094051 | 43 | 155 | 0.0 | 2.6 | 0.00 | 0.00 | 0.00 | 93 | 1013.8 |
| 20260508093551 | 43 | 136 | 0.0 | 2.6 | 0.00 | 0.00 | 0.00 | 93 | 1013.9 |
| 20260508093058 | 43 | 136 | 0.0 | 0.9 | 0.00 | 0.00 | 0.00 | 93 | 1013.9 |
| 20260508092549 | 43 | 136 | 0.0 | 0.9 | 0.00 | 0.00 | 0.00 | 93 | 1014.0 |
| 20260508092048 | 44 | 142 | 0.0 | 0.9 | 0.00 | 0.00 | 0.00 | 93 | 1014.0 |
| 20260508091549 | 43 | 142 | 0.0 | 0.0 | 0.00 | 0.00 | 0.00 | 93 | 1013.9 |
| 20260508091048 | 43 | 142 | 0.0 | 0.0 | 0.00 | 0.00 | 0.00 | 93 | 1014.0 |
| 20260508090650 | 43 | 142 | 0.0 | 1.7 | 0.00 | 0.00 | 0.00 | 93 | 1014.0 |
| 20260508090104 | 43 | 142 | 0.0 | 1.7 | 0.00 | 0.00 | 0.00 | 93 | 1013.9 |
| 20260508085546 | 43 | 145 | 0.0 | 0.9 | 0.00 | 0.00 | 0.00 | 93 | 1014.1 |
| 20260508085045 | 43 | 145 | 0.0 | 0.9 | 0.00 | 0.00 | 0.00 | 93 | 1014.1 |
| 20260508084545 | 44 | 144 | 0.0 | 0.9 | 0.00 | 0.00 | 0.00 | 93 | 1014.1 |
| 20260508084048 | 43 | 132 | 0.0 | 0.9 | 0.00 | 0.00 | 0.00 | 93 | 1014.2 |
| 20260508083548 | 43 | 132 | 0.0 | 0.9 | 0.00 | 0.00 | 0.00 | 93 | 1014.2 |
| 20260508083044 | 43 | 132 | 0.0 | 0.9 | 0.00 | 0.00 | 0.00 | 93 | 1014.2 |
| 20260508082544 | 43 | 153 | 0.0 | 2.6 | 0.00 | 0.00 | 0.00 | 93 | 1014.2 |
| 20260508082044 | 43 | 153 | 0.0 | 2.6 | 0.00 | 0.00 | 0.00 | 93 | 1014.2 |
| 20260508081545 | 43 | 123 | 0.0 | 0.9 | 0.00 | 0.00 | 0.00 | 93 | 1014.2 |
| 20260508081042 | 44 | 157 | 0.0 | 0.9 | 0.00 | 0.00 | 0.00 | 93 | 1014.1 |
| 20260508080643 | 44 | 157 | 0.0 | 0.9 | 0.00 | 0.00 | 0.00 | 93 | 1014.2 |
| 20260508080104 | 44 | 157 | 0.0 | 0.9 | 0.00 | 0.00 | 0.00 | 93 | 1014.1 |
| 20260508075559 | 44 | 157 | 0.0 | 0.9 | 0.00 | 0.00 | 0.00 | 93 | 1014.2 |
| 20260508075057 | 44 | 157 | 0.0 | 0.9 | 0.00 | 0.00 | 0.00 | 93 | 1014.4 |
| 20260508074557 | 44 | 157 | 0.0 | 0.9 | 0.00 | 0.00 | 0.00 | 92 | 1014.2 |
| 20260508074059 | 43 | 157 | 0.0 | 0.9 | 0.00 | 0.00 | 0.00 | 92 | 1014.4 |
| 20260508073557 | 44 | 157 | 0.0 | 0.9 | 0.00 | 0.00 | 0.00 | 92 | 1014.4 |
| 20260508073057 | 44 | 157 | 0.0 | 0.9 | 0.00 | 0.00 | 0.00 | 92 | 1014.4 |
| 20260508072556 | 44 | 157 | 0.0 | 0.9 | 0.00 | 0.00 | 0.00 | 92 | 1014.4 |
| 20260508072057 | 44 | 157 | 0.0 | 0.9 | 0.00 | 0.00 | 0.00 | 92 | 1014.4 |
| 20260508071554 | 44 | 157 | 0.0 | 0.0 | 0.00 | 0.00 | 0.00 | 92 | 1014.5 |
| 20260508071055 | 44 | 157 | 0.0 | 0.0 | 0.00 | 0.00 | 0.00 | 92 | 1014.6 |
| 20260508070654 | 44 | 157 | 0.0 | 0.0 | 0.00 | 0.00 | 0.00 | 92 | 1014.5 |
| 20260508070056 | 44 | 157 | 0.0 | 0.0 | 0.00 | 0.00 | 0.00 | 92 | 1014.5 |
| 20260508065558 | 44 | 157 | 0.0 | 0.9 | 0.00 | 0.00 | 0.00 | 92 | 1014.5 |
| 20260508065055 | 44 | 157 | 0.0 | 0.9 | 0.00 | 0.00 | 0.00 | 92 | 1014.6 |
| 20260508064555 | 44 | 147 | 0.0 | 0.9 | 0.00 | 0.00 | 0.00 | 92 | 1014.6 |
| 20260508064055 | 44 | 147 | 0.0 | 0.9 | 0.00 | 0.00 | 0.00 | 92 | 1014.6 |
| 20260508063553 | 44 | 147 | 0.0 | 0.9 | 0.00 | 0.00 | 0.00 | 92 | 1014.7 |
| 20260508063055 | 43 | 147 | 0.0 | 1.7 | 0.00 | 0.00 | 0.00 | 92 | 1014.7 |
| 20260508062551 | 44 | 147 | 0.0 | 1.7 | 0.00 | 0.00 | 0.00 | 92 | 1014.8 |
| 20260508062052 | 44 | 147 | 0.0 | 1.7 | 0.00 | 0.00 | 0.00 | 92 | 1014.9 |
| 20260508061551 | 44 | 189 | 0.0 | 0.9 | 0.00 | 0.00 | 0.00 | 92 | 1014.8 |
| 20260508061050 | 44 | 189 | 0.0 | 1.7 | 0.00 | 0.00 | 0.00 | 92 | 1015.0 |
| 20260508060651 | 44 | 189 | 0.9 | 1.7 | 0.00 | 0.00 | 0.00 | 92 | 1015.0 |
| 20260508060054 | 44 | 189 | 0.9 | 1.7 | 0.00 | 0.00 | 0.00 | 92 | 1015.1 |
| 20260508055551 | 44 | 189 | 0.0 | 1.7 | 0.00 | 0.00 | 0.00 | 92 | 1015.2 |
| 20260508055051 | 44 | 189 | 0.0 | 1.7 | 0.00 | 0.00 | 0.00 | 92 | 1015.2 |
| 20260508054613 | 44 | 189 | 0.0 | 0.9 | 0.00 | 0.00 | 0.00 | 92 | 1015.1 |
| 20260508054049 | 44 | 189 | 0.0 | 0.9 | 0.00 | 0.00 | 0.00 | 92 | 1015.3 |
| 20260508053552 | 44 | 189 | 0.0 | 0.9 | 0.00 | 0.00 | 0.00 | 92 | 1015.3 |
| 20260508053049 | 44 | 189 | 0.0 | 1.7 | 0.00 | 0.00 | 0.00 | 92 | 1015.3 |
| 20260508052550 | 44 | 189 | 0.0 | 1.7 | 0.00 | 0.00 | 0.00 | 92 | 1015.3 |
| 20260508052047 | 44 | 189 | 0.0 | 0.9 | 0.00 | 0.00 | 0.00 | 92 | 1015.4 |
| 20260508051547 | 44 | 189 | 0.0 | 0.0 | 0.00 | 0.00 | 0.00 | 92 | 1015.5 |
| 20260508051047 | 44 | 189 | 0.0 | 0.0 | 0.00 | 0.00 | 0.00 | 92 | 1015.5 |
| 20260508050646 | 44 | 189 | 0.0 | 0.9 | 0.00 | 0.00 | 0.00 | 92 | 1015.4 |
| 20260508050043 | 44 | 189 | 0.0 | 0.9 | 0.00 | 0.00 | 0.00 | 92 | 1015.3 |
| 20260508045542 | 44 | 189 | 0.0 | 0.9 | 0.00 | 0.00 | 0.00 | 92 | 1015.4 |
| 20260508045042 | 44 | 189 | 0.0 | 0.9 | 0.00 | 0.00 | 0.00 | 92 | 1015.5 |
| 20260508044554 | 44 | 189 | 0.0 | 0.0 | 0.00 | 0.00 | 0.00 | 92 | 1015.6 |
| 20260508044042 | 44 | 189 | 0.0 | 0.9 | 0.00 | 0.00 | 0.00 | 92 | 1015.6 |
| 20260508043543 | 44 | 189 | 0.0 | 0.9 | 0.00 | 0.00 | 0.00 | 92 | 1015.6 |
| 20260508043043 | 44 | 189 | 0.0 | 0.9 | 0.00 | 0.00 | 0.00 | 92 | 1015.7 |
| 20260508042542 | 44 | 189 | 0.0 | 0.0 | 0.00 | 0.00 | 0.00 | 92 | 1015.7 |
| 20260508042041 | 44 | 189 | 0.0 | 0.9 | 0.00 | 0.00 | 0.00 | 91 | 1015.7 |
| 20260508041551 | 44 | 189 | 0.0 | 0.9 | 0.00 | 0.00 | 0.00 | 92 | 1015.7 |
| 20260508041041 | 45 | 189 | 0.0 | 0.9 | 0.00 | 0.00 | 0.00 | 91 | 1015.7 |
| 20260508040643 | 45 | 189 | 0.0 | 0.9 | 0.00 | 0.00 | 0.00 | 91 | 1015.7 |
| 20260508040048 | 45 | 189 | 0.0 | 0.9 | 0.00 | 0.00 | 0.00 | 91 | 1015.7 |
| 20260508035541 | 45 | 189 | 0.0 | 0.9 | 0.00 | 0.00 | 0.00 | 91 | 1015.8 |
| 20260508035041 | 45 | 189 | 0.0 | 0.9 | 0.00 | 0.00 | 0.00 | 91 | 1015.8 |
| 20260508034541 | 45 | 189 | 0.0 | 0.9 | 0.00 | 0.00 | 0.00 | 90 | 1015.9 |
| 20260508034041 | 45 | 189 | 0.0 | 0.9 | 0.00 | 0.00 | 0.00 | 90 | 1015.9 |
| 20260508033541 | 45 | 189 | 0.0 | 0.9 | 0.00 | 0.00 | 0.00 | 90 | 1015.9 |
| 20260508033040 | 46 | 189 | 0.0 | 0.9 | 0.00 | 0.00 | 0.00 | 89 | 1015.8 |
| 20260508032543 | 46 | 189 | 0.0 | 0.0 | 0.00 | 0.00 | 0.00 | 89 | 1015.8 |
| 20260508032042 | 46 | 189 | 0.0 | 0.0 | 0.00 | 0.00 | 0.00 | 89 | 1015.7 |
| 20260508031554 | 46 | 189 | 0.0 | 0.0 | 0.00 | 0.00 | 0.00 | 89 | 1015.6 |
| 20260508031039 | 46 | 189 | 0.0 | 0.0 | 0.00 | 0.00 | 0.00 | 89 | 1015.7 |
| 20260508030639 | 46 | 189 | 0.0 | 0.0 | 0.00 | 0.00 | 0.00 | 88 | 1015.6 |
| 20260508030114 | 46 | 189 | 0.0 | 0.0 | 0.00 | 0.00 | 0.00 | 88 | 1015.5 |
| 20260508025600 | 47 | 189 | 0.0 | 0.0 | 0.00 | 0.00 | 0.00 | 87 | 1015.4 |
| 20260508025100 | 47 | 189 | 0.0 | 0.0 | 0.00 | 0.00 | 0.00 | 87 | 1015.4 |
| 20260508024607 | 47 | 189 | 0.0 | 0.0 | 0.00 | 0.00 | 0.00 | 86 | 1015.4 |
| 20260508024059 | 47 | 189 | 0.0 | 0.9 | 0.00 | 0.00 | 0.00 | 86 | 1015.2 |
| 20260508023558 | 48 | 189 | 0.0 | 0.9 | 0.00 | 0.00 | 0.00 | 85 | 1015.2 |
| 20260508023058 | 48 | 189 | 0.0 | 0.9 | 0.00 | 0.00 | 0.00 | 84 | 1015.1 |
| 20260508022557 | 48 | 189 | 0.0 | 0.9 | 0.00 | 0.00 | 0.00 | 84 | 1015.1 |
| 20260508022057 | 49 | 189 | 0.0 | 0.9 | 0.00 | 0.00 | 0.00 | 83 | 1015.1 |
| 20260508021615 | 49 | 189 | 0.0 | 0.9 | 0.00 | 0.00 | 0.00 | 82 | 1014.9 |
| 20260508021059 | 49 | 189 | 0.0 | 0.0 | 0.00 | 0.00 | 0.00 | 81 | 1014.9 |
| 20260508020656 | 50 | 189 | 0.0 | 0.0 | 0.00 | 0.00 | 0.00 | 80 | 1014.8 |
| 20260508020054 | 50 | 189 | 0.0 | 0.0 | 0.00 | 0.00 | 0.00 | 78 | 1014.7 |
| 20260508015554 | 50 | 189 | 0.0 | 0.0 | 0.00 | 0.00 | 0.00 | 77 | 1014.6 |
| 20260508015053 | 51 | 189 | 0.0 | 0.0 | 0.00 | 0.00 | 0.00 | 76 | 1014.6 |
| 20260508014553 | 51 | 189 | 0.0 | 0.0 | 0.00 | 0.00 | 0.00 | 76 | 1014.5 |
| 20260508014053 | 52 | 189 | 0.0 | 0.0 | 0.00 | 0.00 | 0.00 | 77 | 1014.5 |
| 20260508013552 | 52 | 189 | 0.0 | 0.0 | 0.00 | 0.00 | 0.00 | 76 | 1014.4 |
| 20260508013056 | 52 | 189 | 0.0 | 0.0 | 0.00 | 0.00 | 0.00 | 75 | 1014.4 |
| 20260508012552 | 53 | 189 | 0.0 | 0.0 | 0.00 | 0.00 | 0.00 | 73 | 1014.4 |
| 20260508012055 | 53 | 189 | 0.0 | 0.0 | 0.00 | 0.00 | 0.00 | 73 | 1014.4 |
| 20260508011559 | 54 | 189 | 0.0 | 0.0 | 0.00 | 0.00 | 0.00 | 71 | 1014.3 |
| 20260508011056 | 54 | 189 | 0.0 | 0.0 | 0.00 | 0.00 | 0.00 | 71 | 1014.2 |
| 20260508010654 | 55 | 189 | 0.0 | 0.0 | 0.00 | 0.00 | 0.00 | 70 | 1014.3 |
| 20260508010054 | 55 | 189 | 0.0 | 0.9 | 0.00 | 0.00 | 0.00 | 68 | 1014.2 |
| 20260508005555 | 56 | 189 | 0.0 | 0.9 | 0.00 | 0.00 | 0.00 | 65 | 1014.1 |
| 20260508005058 | 57 | 189 | 0.0 | 0.9 | 0.00 | 0.00 | 0.00 | 62 | 1014.0 |
| 20260508004559 | 58 | 189 | 0.0 | 0.9 | 0.00 | 0.00 | 0.00 | 61 | 1014.1 |
| 20260508004053 | 58 | 190 | 0.0 | 0.9 | 0.00 | 0.00 | 0.00 | 59 | 1014.1 |
| 20260508003552 | 60 | 190 | 0.0 | 1.7 | 0.00 | 0.00 | 0.00 | 59 | 1014.1 |
| 20260508003103 | 61 | 199 | 0.9 | 3.5 | 0.00 | 0.00 | 0.00 | 53 | 1014.0 |
| 20260508002552 | 62 | 230 | 0.9 | 3.5 | 0.00 | 0.00 | 0.00 | 49 | 1014.0 |
| 20260508002051 | 62 | 195 | 0.9 | 1.7 | 0.00 | 0.00 | 0.00 | 49 | 1014.0 |
| 20260508001552 | 62 | 222 | 0.0 | 4.3 | 0.00 | 0.00 | 0.00 | 49 | 1014.0 |
| 20260508001051 | 63 | 240 | 0.9 | 5.2 | 0.00 | 0.00 | 0.00 | 49 | 1013.9 |
| 20260508000651 | 63 | 275 | 0.9 | 5.2 | 0.00 | 0.00 | 0.00 | 48 | 1013.9 |
| 20260508000050 | 64 | 190 | 0.0 | 3.5 | 0.00 | 0.00 | 0.00 | 46 | 1013.9 |
| 20260507235550 | 64 | 163 | 0.9 | 4.3 | 0.00 | 0.00 | 0.00 | 46 | 1013.8 |
| 20260507235049 | 64 | 202 | 0.9 | 4.3 | 0.00 | 0.00 | 0.00 | 47 | 1013.9 |
| 20260507234550 | 64 | 323 | 0.9 | 4.3 | 0.00 | 0.00 | 0.00 | 47 | 1013.9 |
| 20260507234051 | 64 | 310 | 1.7 | 7.8 | 0.00 | 0.00 | 0.00 | 47 | 1013.8 |
| 20260507233548 | 64 | 306 | 0.9 | 7.8 | 0.00 | 0.00 | 0.00 | 47 | 1013.9 |
| 20260507233048 | 64 | 158 | 2.6 | 7.8 | 0.00 | 0.00 | 0.00 | 45 | 1014.0 |
| 20260507232548 | 65 | 260 | 0.9 | 5.2 | 0.00 | 0.00 | 0.00 | 45 | 1014.1 |
| 20260507232047 | 64 | 186 | 1.7 | 7.0 | 0.00 | 0.00 | 0.00 | 45 | 1014.1 |
| 20260507231555 | 65 | 181 | 0.9 | 6.1 | 0.00 | 0.00 | 0.00 | 44 | 1014.1 |
| 20260507231046 | 65 | 307 | 0.9 | 6.1 | 0.00 | 0.00 | 0.00 | 45 | 1014.1 |
| 20260507230646 | 65 | 266 | 0.9 | 4.3 | 0.00 | 0.00 | 0.00 | 46 | 1014.2 |
| 20260507230047 | 64 | 250 | 0.9 | 6.1 | 0.00 | 0.00 | 0.00 | 47 | 1014.2 |
| 20260507225548 | 64 | 157 | 1.7 | 7.8 | 0.00 | 0.00 | 0.00 | 46 | 1014.3 |
| 20260507225048 | 64 | 228 | 3.5 | 7.8 | 0.00 | 0.00 | 0.00 | 43 | 1014.3 |
| 20260507224558 | 64 | 206 | 2.6 | 6.1 | 0.00 | 0.00 | 0.00 | 43 | 1014.4 |
| 20260507224044 | 64 | 198 | 1.7 | 4.3 | 0.00 | 0.00 | 0.00 | 43 | 1014.5 |
| 20260507223549 | 64 | 43 | 0.9 | 8.7 | 0.00 | 0.00 | 0.00 | 44 | 1014.6 |
| 20260507223048 | 65 | 75 | 0.9 | 8.7 | 0.00 | 0.00 | 0.00 | 46 | 1014.6 |
| 20260507222548 | 65 | 154 | 2.6 | 7.0 | 0.00 | 0.00 | 0.00 | 43 | 1014.5 |
| 20260507222044 | 65 | 223 | 2.6 | 12.2 | 0.00 | 0.00 | 0.00 | 46 | 1014.5 |
| 20260507221545 | 65 | 206 | 4.3 | 12.2 | 0.00 | 0.00 | 0.00 | 45 | 1014.6 |
| 20260507221044 | 65 | 209 | 1.7 | 8.7 | 0.00 | 0.00 | 0.00 | 46 | 1014.5 |
| 20260507220644 | 64 | 271 | 0.0 | 4.3 | 0.00 | 0.00 | 0.00 | 46 | 1014.5 |
| 20260507220044 | 63 | 284 | 0.9 | 7.8 | 0.00 | 0.00 | 0.00 | 45 | 1014.6 |
| 20260507215544 | 64 | 261 | 2.6 | 7.8 | 0.00 | 0.00 | 0.00 | 44 | 1014.6 |
| 20260507215043 | 65 | 267 | 0.9 | 9.6 | 0.00 | 0.00 | 0.00 | 46 | 1014.6 |
| 20260507214543 | 65 | 212 | 1.7 | 9.6 | 0.00 | 0.00 | 0.00 | 47 | 1014.6 |
| 20260507214041 | 64 | 283 | 0.9 | 8.7 | 0.00 | 0.00 | 0.00 | 45 | 1014.6 |
| 20260507213541 | 64 | 296 | 3.5 | 8.7 | 0.00 | 0.00 | 0.00 | 43 | 1014.7 |
| 20260507213048 | 65 | 257 | 2.6 | 6.1 | 0.00 | 0.00 | 0.00 | 42 | 1014.8 |
| 20260507212540 | 66 | 313 | 0.9 | 4.3 | 0.00 | 0.00 | 0.00 | 45 | 1014.8 |
| 20260507212039 | 66 | 267 | 0.9 | 7.0 | 0.00 | 0.00 | 0.00 | 48 | 1014.9 |
| 20260507211539 | 64 | 227 | 0.9 | 7.0 | 0.00 | 0.00 | 0.00 | 45 | 1015.0 |
| 20260507211038 | 65 | 267 | 1.7 | 8.7 | 0.00 | 0.00 | 0.00 | 48 | 1015.0 |
| 20260507210640 | 66 | 188 | 0.9 | 8.7 | 0.00 | 0.00 | 0.00 | 43 | 1015.0 |
| 20260507210121 | 66 | 218 | 1.7 | 6.1 | 0.00 | 0.00 | 0.00 | 41 | 1015.0 |
| 20260507205558 | 66 | 253 | 3.5 | 7.0 | 0.00 | 0.00 | 0.00 | 42 | 1015.2 |
| 20260507205058 | 66 | 166 | 0.9 | 10.4 | 0.00 | 0.00 | 0.00 | 46 | 1015.3 |
| 20260507204604 | 66 | 294 | 2.6 | 10.4 | 0.00 | 0.00 | 0.00 | 42 | 1015.2 |
| 20260507204059 | 66 | 327 | 2.6 | 10.4 | 0.00 | 0.00 | 0.00 | 43 | 1015.3 |
| 20260507203556 | 66 | 232 | 3.5 | 8.7 | 0.00 | 0.00 | 0.00 | 43 | 1015.5 |
| 20260507203058 | 67 | 294 | 2.6 | 7.0 | 0.00 | 0.00 | 0.00 | 46 | 1015.5 |
| 20260507202554 | 67 | 254 | 1.7 | 7.0 | 0.00 | 0.00 | 0.00 | 43 | 1015.6 |
| 20260507202056 | 66 | 262 | 1.7 | 11.3 | 0.00 | 0.00 | 0.00 | 44 | 1015.5 |
| 20260507201553 | 66 | 155 | 0.9 | 11.3 | 0.00 | 0.00 | 0.00 | 46 | 1015.7 |
| 20260507201053 | 65 | 190 | 2.6 | 6.1 | 0.00 | 0.00 | 0.00 | 44 | 1015.8 |
| 20260507200652 | 66 | 303 | 1.7 | 6.1 | 0.00 | 0.00 | 0.00 | 46 | 1015.9 |
| 20260507200105 | 65 | 37 | 0.9 | 9.6 | 0.00 | 0.00 | 0.00 | 42 | 1016.1 |
| 20260507195556 | 66 | 223 | 1.7 | 10.4 | 0.00 | 0.00 | 0.00 | 44 | 1016.2 |
| 20260507195053 | 66 | 52 | 2.6 | 10.4 | 0.00 | 0.00 | 0.00 | 41 | 1016.3 |
| 20260507194553 | 65 | 160 | 3.5 | 9.6 | 0.00 | 0.00 | 0.00 | 41 | 1016.1 |
| 20260507194055 | 65 | 172 | 5.2 | 10.4 | 0.00 | 0.00 | 0.00 | 43 | 1016.2 |
| 20260507193552 | 65 | 146 | 4.3 | 13.0 | 0.00 | 0.00 | 0.00 | 42 | 1016.2 |
| 20260507193110 | 65 | 355 | 1.7 | 13.0 | 0.00 | 0.00 | 0.00 | 41 | 1016.2 |
| 20260507192552 | 65 | 279 | 2.6 | 8.7 | 0.00 | 0.00 | 0.00 | 38 | 1016.2 |
| 20260507192053 | 65 | 207 | 0.9 | 8.7 | 0.00 | 0.00 | 0.00 | 47 | 1016.3 |
| 20260507191557 | 65 | 355 | 1.7 | 7.0 | 0.00 | 0.00 | 0.00 | 43 | 1016.4 |
| 20260507191050 | 64 | 272 | 2.6 | 9.6 | 0.00 | 0.00 | 0.00 | 42 | 1016.4 |
| 20260507190649 | 64 | 300 | 4.3 | 9.6 | 0.00 | 0.00 | 0.00 | 41 | 1016.5 |
| 20260507190054 | 65 | 341 | 3.5 | 12.2 | 0.00 | 0.00 | 0.00 | 42 | 1016.5 |
| 20260507185552 | 64 | 256 | 3.5 | 11.3 | 0.00 | 0.00 | 0.00 | 45 | 1016.5 |
| 20260507185052 | 64 | 207 | 2.6 | 8.7 | 0.00 | 0.00 | 0.00 | 40 | 1016.6 |
| 20260507184551 | 63 | 176 | 1.7 | 6.1 | 0.00 | 0.00 | 0.00 | 46 | 1016.7 |
| 20260507184047 | 64 | 290 | 1.7 | 8.7 | 0.00 | 0.00 | 0.00 | 43 | 1016.8 |
| 20260507183546 | 64 | 288 | 4.3 | 8.7 | 0.00 | 0.00 | 0.00 | 48 | 1016.9 |
| 20260507183057 | 64 | 288 | 2.6 | 8.7 | 0.00 | 0.00 | 0.00 | 47 | 1016.9 |
| 20260507182545 | 63 | 140 | 2.6 | 7.0 | 0.00 | 0.00 | 0.00 | 41 | 1016.8 |
| 20260507182045 | 63 | 192 | 0.0 | 7.0 | 0.00 | 0.00 | 0.00 | 49 | 1016.9 |
| 20260507181544 | 62 | 157 | 0.9 | 8.7 | 0.00 | 0.00 | 0.00 | 38 | 1016.9 |
| 20260507181043 | 63 | 173 | 4.3 | 10.4 | 0.00 | 0.00 | 0.00 | 43 | 1016.9 |
| 20260507180643 | 63 | 248 | 1.7 | 10.4 | 0.00 | 0.00 | 0.00 | 42 | 1016.9 |
| 20260507180050 | 62 | 329 | 0.9 | 4.3 | 0.00 | 0.00 | 0.00 | 38 | 1017.0 |
| 20260507175555 | 63 | 355 | 0.9 | 6.1 | 0.00 | 0.00 | 0.00 | 48 | 1017.2 |
| 20260507175048 | 62 | 255 | 2.6 | 7.0 | 0.00 | 0.00 | 0.00 | 48 | 1017.4 |
| 20260507174548 | 62 | 338 | 2.6 | 7.0 | 0.00 | 0.00 | 0.00 | 44 | 1017.4 |
| 20260507174046 | 63 | 304 | 1.7 | 7.8 | 0.00 | 0.00 | 0.00 | 43 | 1017.5 |
| 20260507173550 | 62 | 202 | 2.6 | 7.8 | 0.00 | 0.00 | 0.00 | 43 | 1017.6 |
| 20260507173112 | 62 | 209 | 0.9 | 7.0 | 0.00 | 0.00 | 0.00 | 48 | 1017.6 |
| 20260507172545 | 62 | 307 | 3.5 | 7.0 | 0.00 | 0.00 | 0.00 | 47 | 1017.7 |
| 20260507172044 | 62 | 316 | 0.9 | 8.7 | 0.00 | 0.00 | 0.00 | 46 | 1017.7 |
| 20260507171546 | 62 | 228 | 0.9 | 8.7 | 0.00 | 0.00 | 0.00 | 52 | 1017.8 |
| 20260507171041 | 61 | 178 | 1.7 | 6.1 | 0.00 | 0.00 | 0.00 | 44 | 1017.8 |
| 20260507170641 | 61 | 239 | 0.9 | 9.6 | 0.00 | 0.00 | 0.00 | 41 | 1017.9 |
| 20260507170050 | 61 | 284 | 4.3 | 10.4 | 0.00 | 0.00 | 0.00 | 45 | 1017.9 |
| 20260507165546 | 61 | 277 | 4.3 | 10.4 | 0.00 | 0.00 | 0.00 | 44 | 1018.1 |
| 20260507165045 | 61 | 292 | 1.7 | 7.8 | 0.00 | 0.00 | 0.00 | 44 | 1018.1 |
| 20260507164553 | 60 | 304 | 0.9 | 9.6 | 0.00 | 0.00 | 0.00 | 51 | 1018.3 |
| 20260507164043 | 61 | 313 | 2.6 | 9.6 | 0.00 | 0.00 | 0.00 | 46 | 1018.3 |
| 20260507163542 | 61 | 305 | 3.5 | 7.0 | 0.00 | 0.00 | 0.00 | 47 | 1018.4 |
| 20260507163041 | 61 | 250 | 0.0 | 6.1 | 0.00 | 0.00 | 0.00 | 49 | 1018.4 |
| 20260507162540 | 60 | 163 | 0.0 | 7.0 | 0.00 | 0.00 | 0.00 | 50 | 1018.4 |
| 20260507162039 | 60 | 360 | 2.6 | 7.0 | 0.00 | 0.00 | 0.00 | 54 | 1018.5 |
| 20260507161540 | 60 | 292 | 3.5 | 7.0 | 0.00 | 0.00 | 0.00 | 49 | 1018.6 |
| 20260507161038 | 60 | 181 | 3.5 | 7.0 | 0.00 | 0.00 | 0.00 | 46 | 1018.5 |
| 20260507160509 | 60 | 286 | 0.9 | 5.2 | 0.00 | 0.00 | 0.00 | 54 | 1018.5 |
| 20260507160012 | 60 | 319 | 3.5 | 8.7 | 0.00 | 0.00 | 0.00 | 48 | 1018.6 |
| 20260507155509 | 59 | 215 | 3.5 | 8.7 | 0.00 | 0.00 | 0.00 | 50 | 1018.5 |
| 20260507155006 | 59 | 171 | 1.7 | 7.0 | 0.00 | 0.00 | 0.00 | 53 | 1018.5 |
| 20260507154608 | 59 | 194 | 1.7 | 7.0 | 0.00 | 0.00 | 0.00 | 52 | 1018.5 |
| 20260507154003 | 59 | 215 | 0.0 | 3.5 | 0.00 | 0.00 | 0.00 | 55 | 1018.6 |
| 20260507153504 | 59 | 166 | 0.9 | 8.7 | 0.00 | 0.00 | 0.00 | 49 | 1018.7 |
| 20260507153101 | 59 | 279 | 3.5 | 8.7 | 0.00 | 0.00 | 0.00 | 51 | 1018.7 |
| 20260507152558 | 58 | 190 | 1.7 | 3.5 | 0.00 | 0.00 | 0.00 | 54 | 1018.7 |
| 20260507152057 | 59 | 315 | 0.0 | 7.0 | 0.00 | 0.00 | 0.00 | 53 | 1018.8 |
| 20260507151556 | 57 | 233 | 2.6 | 7.0 | 0.00 | 0.00 | 0.00 | 51 | 1018.9 |
| 20260507151056 | 57 | 146 | 1.7 | 5.2 | 0.00 | 0.00 | 0.00 | 50 | 1018.8 |
| 20260507150509 | 57 | 259 | 1.7 | 5.2 | 0.00 | 0.00 | 0.00 | 53 | 1018.9 |
| 20260507150010 | 57 | 222 | 0.9 | 7.0 | 0.00 | 0.00 | 0.00 | 53 | 1018.9 |
| 20260507145508 | 58 | 219 | 1.7 | 7.0 | 0.00 | 0.00 | 0.00 | 60 | 1018.9 |
| 20260507145007 | 57 | 130 | 2.6 | 5.2 | 0.00 | 0.00 | 0.00 | 61 | 1019.0 |
| 20260507144508 | 57 | 199 | 1.7 | 6.1 | 0.00 | 0.00 | 0.00 | 54 | 1019.0 |
| 20260507144002 | 56 | 229 | 0.9 | 6.1 | 0.00 | 0.00 | 0.00 | 60 | 1019.0 |
| 20260507143600 | 56 | 194 | 2.6 | 5.2 | 0.00 | 0.00 | 0.00 | 59 | 1018.9 |
| 20260507143110 | 56 | 261 | 1.7 | 4.3 | 0.00 | 0.00 | 0.00 | 61 | 1019.0 |
| 20260507142558 | 55 | 217 | 0.9 | 4.3 | 0.00 | 0.00 | 0.00 | 69 | 1019.0 |
| 20260507142057 | 54 | 178 | 0.9 | 4.3 | 0.00 | 0.00 | 0.00 | 73 | 1019.1 |
| 20260507141613 | 53 | 225 | 0.9 | 6.1 | 0.00 | 0.00 | 0.00 | 77 | 1019.1 |
| 20260507141054 | 51 | 215 | 1.7 | 6.1 | 0.00 | 0.00 | 0.00 | 87 | 1019.1 |
| 20260507140508 | 50 | 208 | 1.7 | 5.2 | 0.00 | 0.00 | 0.00 | 93 | 1019.1 |
| 20260507140006 | 48 | 164 | 0.9 | 5.2 | 0.00 | 0.00 | 0.00 | 96 | 1019.2 |
| 20260507135504 | 47 | 176 | 0.9 | 5.2 | 0.00 | 0.00 | 0.00 | 97 | 1019.2 |
| 20260507135001 | 47 | 168 | 1.7 | 4.3 | 0.00 | 0.00 | 0.00 | 97 | 1019.1 |
| 20260507134609 | 46 | 194 | 0.9 | 2.6 | 0.00 | 0.00 | 0.00 | 97 | 1019.2 |
| 20260507134057 | 46 | 173 | 0.9 | 2.6 | 0.00 | 0.00 | 0.00 | 97 | 1019.2 |
| 20260507133556 | 45 | 202 | 0.9 | 2.6 | 0.00 | 0.00 | 0.00 | 97 | 1019.3 |
| 20260507133055 | 45 | 168 | 0.9 | 2.6 | 0.00 | 0.00 | 0.00 | 97 | 1019.2 |
| 20260507132554 | 44 | 131 | 0.0 | 2.6 | 0.00 | 0.00 | 0.00 | 97 | 1019.1 |
| 20260507132052 | 44 | 146 | 0.0 | 1.7 | 0.00 | 0.00 | 0.00 | 96 | 1019.1 |
| 20260507131551 | 43 | 215 | 0.0 | 1.7 | 0.00 | 0.00 | 0.00 | 97 | 1019.2 |
| 20260507131050 | 42 | 218 | 0.0 | 1.7 | 0.00 | 0.00 | 0.00 | 96 | 1019.0 |
| 20260507130648 | 42 | 184 | 0.9 | 1.7 | 0.00 | 0.00 | 0.00 | 96 | 1019.2 |
| 20260507130054 | 41 | 90 | 0.0 | 0.9 | 0.00 | 0.00 | 0.00 | 96 | 1019.1 |
| 20260507125552 | 40 | 90 | 0.0 | 0.9 | 0.00 | 0.00 | 0.00 | 96 | 1019.2 |
| 20260507125053 | 40 | 90 | 0.0 | 0.9 | 0.00 | 0.00 | 0.00 | 96 | 1019.1 |
| 20260507124551 | 40 | 90 | 0.0 | 0.0 | 0.00 | 0.00 | 0.00 | 96 | 1019.1 |
| 20260507124048 | 39 | 90 | 0.0 | 0.0 | 0.00 | 0.00 | 0.00 | 96 | 1019.1 |
| 20260507123548 | 39 | 90 | 0.0 | 0.0 | 0.00 | 0.00 | 0.00 | 96 | 1019.0 |
| 20260507123050 | 39 | 90 | 0.0 | 0.0 | 0.00 | 0.00 | 0.00 | 96 | 1019.1 |
| 20260507122547 | 39 | 90 | 0.0 | 0.0 | 0.00 | 0.00 | 0.00 | 96 | 1019.2 |
| 20260507122047 | 38 | 90 | 0.0 | 0.0 | 0.00 | 0.00 | 0.00 | 96 | 1019.0 |
| 20260507121546 | 38 | 90 | 0.0 | 0.0 | 0.00 | 0.00 | 0.00 | 96 | 1019.1 |
| 20260507121046 | 38 | 90 | 0.0 | 0.0 | 0.00 | 0.00 | 0.00 | 96 | 1019.0 |
| 20260507120645 | 38 | 90 | 0.0 | 0.0 | 0.00 | 0.00 | 0.00 | 95 | 1019.0 |
| 20260507120052 | 37 | 90 | 0.0 | 0.0 | 0.00 | 0.00 | 0.00 | 96 | 1018.9 |
| 20260507115550 | 37 | 90 | 0.0 | 0.0 | 0.00 | 0.00 | 0.00 | 96 | 1018.7 |
| 20260507115051 | 37 | 90 | 0.0 | 0.0 | 0.00 | 0.00 | 0.00 | 95 | 1018.7 |
| 20260507114555 | 36 | 90 | 0.0 | 0.0 | 0.00 | 0.00 | 0.00 | 95 | 1018.8 |
| 20260507114048 | 36 | 90 | 0.0 | 0.0 | 0.00 | 0.00 | 0.00 | 95 | 1018.6 |
| 20260507113547 | 36 | 90 | 0.0 | 0.0 | 0.00 | 0.00 | 0.00 | 95 | 1018.6 |
| 20260507113049 | 36 | 90 | 0.0 | 0.0 | 0.00 | 0.00 | 0.00 | 95 | 1018.5 |
| 20260507112545 | 36 | 90 | 0.0 | 0.0 | 0.00 | 0.00 | 0.00 | 95 | 1018.4 |
| 20260507112044 | 35 | 90 | 0.0 | 0.0 | 0.00 | 0.00 | 0.00 | 95 | 1018.4 |
| 20260507111554 | 35 | 90 | 0.0 | 0.0 | 0.00 | 0.00 | 0.00 | 95 | 1018.4 |
| 20260507111041 | 35 | 90 | 0.0 | 0.0 | 0.00 | 0.00 | 0.00 | 95 | 1018.4 |
| 20260507110644 | 35 | 90 | 0.0 | 0.0 | 0.00 | 0.00 | 0.00 | 95 | 1018.3 |
| 20260507110041 | 35 | 90 | 0.0 | 0.9 | 0.00 | 0.00 | 0.00 | 95 | 1018.3 |
| 20260507105540 | 35 | 90 | 0.0 | 0.9 | 0.00 | 0.00 | 0.00 | 95 | 1018.2 |
| 20260507105040 | 35 | 90 | 0.0 | 0.0 | 0.00 | 0.00 | 0.00 | 95 | 1018.1 |
| 20260507104540 | 34 | 90 | 0.0 | 0.0 | 0.00 | 0.00 | 0.00 | 95 | 1018.0 |
| 20260507104040 | 34 | 90 | 0.0 | 0.0 | 0.00 | 0.00 | 0.00 | 95 | 1017.9 |
| 20260507103539 | 34 | 90 | 0.0 | 0.0 | 0.00 | 0.00 | 0.00 | 95 | 1018.1 |
| 20260507103039 | 34 | 90 | 0.0 | 0.0 | 0.00 | 0.00 | 0.00 | 95 | 1018.2 |
| 20260507102539 | 34 | 90 | 0.0 | 0.0 | 0.00 | 0.00 | 0.00 | 95 | 1018.1 |
| 20260507102041 | 34 | 90 | 0.0 | 0.0 | 0.00 | 0.00 | 0.00 | 95 | 1018.1 |
| 20260507101543 | 34 | 90 | 0.0 | 0.0 | 0.00 | 0.00 | 0.00 | 95 | 1018.0 |
| 20260507101038 | 35 | 90 | 0.0 | 0.0 | 0.00 | 0.00 | 0.00 | 95 | 1017.8 |
| 20260507100639 | 35 | 90 | 0.0 | 0.0 | 0.00 | 0.00 | 0.00 | 95 | 1018.0 |
| 20260507100057 | 35 | 90 | 0.0 | 0.0 | 0.00 | 0.00 | 0.00 | 95 | 1018.2 |
| 20260507095557 | 35 | 90 | 0.0 | 0.0 | 0.00 | 0.00 | 0.00 | 95 | 1018.2 |
| 20260507095056 | 35 | 90 | 0.0 | 0.0 | 0.00 | 0.00 | 0.00 | 95 | 1018.0 |